Columbus, OH

11:05 PM EST on February 19, 2017 (GMT -0500)
Port Columbus International

Weather History for KCMH - February, 2012

Change the Weather History Date:

Tuesday, February 21, 2012

  Actual Average Record
Temperature  
Mean Temperature 41 °F 34 °F  
Max Temperature 49 °F 42 °F 71 °F (1997)
Min Temperature 33 °F 26 °F -8 °F (1885)
Degree Days  
Heating Degree Days 24 31  
Month to date heating degree days 625 695  
Since 1 July heating degree days 3264 3787  
Cooling Degree Days 0 0  
Month to date cooling degree days 0 0  
Year to date cooling degree days 0 0  
Moisture  
Dew Point 33 °F    
Average Humidity 67    
Maximum Humidity 82    
Minimum Humidity 52    
Precipitation  
Precipitation 0.07 in 0.08 in 1.22 in (2011)
Month to date precipitation 1.11 1.69  
Year to date precipitation 4.93 4.42  
Snow  
Snow T in 0.20 in 6.80 in (2015)
Month to date snowfall 5.4 4.5  
Since 1 July snowfall 11.9 19.8  
Snow Depth 0.00 in    
Sea Level Pressure  
Sea Level Pressure 29.88 in    
Wind  
Wind Speed 14 mph (SSW)    
Max Wind Speed 25 mph    
Max Gust Speed 31 mph    
Visibility 10 miles    
Events Rain    
T = Trace of Precipitation, MM = Missing Value Source: NWS Daily Summary

Daily Weather History Graph

Daily Weather History Graph

Search for Another Location

Airport or City:

Trip Planner

Search our weather history database for the weather conditions in past years. The results will help you decide how hot, cold, wet, or windy it might be!

Date:

Astronomy

Feb. 21, 2012 Rise Set
Actual Time 7:17 AM EST 6:13 PM EST
Civil Twilight 6:49 AM EST 6:41 PM EST
Nautical Twilight 6:18 AM EST 7:12 PM EST
Astronomical Twilight 5:46 AM EST 7:44 PM EST
Moon 6:45 AM EST (2/21) 6:19 PM EST (2/21)
Length of Visible Light 11h 51m
Length of Day
10h 56m
Waning Crescent, 0% of the Moon is Illuminated
Feb 21
Waning Crescent
Feb 21
New
Feb 29
First Quarter
Mar 8
Full
Mar 14
Last Quarter

Hourly Weather History & Observations

Time (EST) Temp. Windchill Dew Point Humidity Pressure Visibility Wind Dir Wind Speed Gust Speed Precip Events Conditions
12:51 AM 36.0 °F 28.0 °F 19.9 °F 52% 30.12 in 10.0 mi SE 11.5 mph - N/A   Overcast
1:51 AM 36.0 °F 28.0 °F 19.9 °F 52% 30.09 in 10.0 mi SE 11.5 mph - N/A   Overcast
2:51 AM 34.0 °F 28.0 °F 21.0 °F 59% 30.07 in 10.0 mi SE 6.9 mph - N/A   Overcast
3:51 AM 35.1 °F 27.9 °F 23.0 °F 61% 30.04 in 10.0 mi SE 9.2 mph - N/A   Overcast
4:51 AM 35.1 °F 27.9 °F 24.1 °F 64% 30.00 in 10.0 mi SE 9.2 mph - N/A   Overcast
5:51 AM 37.4 °F 29.8 °F 24.8 °F 60% 29.95 in 10.0 mi SSE 11.5 mph - N/A   Overcast
6:51 AM 37.9 °F 30.5 °F 26.1 °F 62% 29.94 in 10.0 mi SSE 11.5 mph - N/A   Overcast
7:51 AM 39.9 °F 32.1 °F 27.0 °F 60% 29.90 in 10.0 mi SSE 13.8 mph 21.9 mph 0.00 in Rain Light Rain
8:51 AM 37.0 °F 27.4 °F 32.0 °F 82% 29.91 in 7.0 mi SSE 17.3 mph 24.2 mph 0.06 in Rain Light Rain
9:51 AM 39.0 °F 29.3 °F 33.1 °F 79% 29.87 in 10.0 mi South 19.6 mph 25.3 mph 0.01 in   Mostly Cloudy
10:51 AM 39.9 °F 32.1 °F 33.1 °F 77% 29.83 in 10.0 mi South 13.8 mph - 0.00 in   Overcast
11:51 AM 43.0 °F 35.1 °F 36.0 °F 76% 29.83 in 10.0 mi SSW 17.3 mph 26.5 mph 0.00 in Rain Light Rain
12:01 PM 42.8 °F 34.0 °F 37.4 °F 81% 29.81 in 10.0 mi SSW 20.7 mph 27.6 mph 0.00 in Rain Light Rain
12:35 PM 44.6 °F 37.4 °F 37.4 °F 76% 29.80 in 10.0 mi SSW 16.1 mph - 0.00 in   Overcast
12:51 PM 44.1 °F 37.1 °F 39.0 °F 82% 29.81 in 10.0 mi SW 15.0 mph 24.2 mph 0.00 in Rain Light Rain
1:01 PM 44.6 °F 38.1 °F 39.2 °F 81% 29.80 in 9.0 mi WSW 13.8 mph - 0.00 in Rain Light Rain
1:51 PM 48.9 °F - 39.0 °F 69% 29.79 in 10.0 mi SW 20.7 mph 25.3 mph 0.00 in   Overcast
1:58 PM 48.2 °F - 37.4 °F 66% 29.78 in 10.0 mi WSW 19.6 mph 29.9 mph N/A   Overcast
2:51 PM 48.9 °F - 39.0 °F 69% 29.79 in 10.0 mi SW 16.1 mph - N/A   Overcast
3:51 PM 48.9 °F - 37.0 °F 64% 29.81 in 10.0 mi WSW 16.1 mph 29.9 mph N/A   Overcast
4:51 PM 48.0 °F - 36.0 °F 63% 29.82 in 10.0 mi SW 17.3 mph 27.6 mph N/A   Overcast
5:51 PM 48.0 °F - 35.1 °F 61% 29.81 in 10.0 mi WSW 12.7 mph 20.7 mph N/A   Overcast
6:51 PM 46.9 °F - 36.0 °F 66% 29.83 in 10.0 mi SW 13.8 mph 24.2 mph N/A   Overcast
7:51 PM 46.9 °F - 35.1 °F 63% 29.84 in 10.0 mi SW 12.7 mph - N/A   Overcast
8:51 PM 46.0 °F 39.6 °F 36.0 °F 68% 29.85 in 10.0 mi SW 15.0 mph - 0.00 in   Overcast
9:32 PM 44.6 °F 37.8 °F 37.4 °F 76% 29.84 in 10.0 mi WSW 15.0 mph - 0.00 in Rain Light Rain
9:51 PM 46.0 °F 38.8 °F 37.0 °F 71% 29.85 in 10.0 mi WSW 18.4 mph - 0.00 in   Overcast
10:15 PM 46.4 °F 40.4 °F 37.4 °F 71% 29.84 in 10.0 mi SW 13.8 mph 23.0 mph N/A   Overcast
10:51 PM 45.0 °F 38.9 °F 37.0 °F 74% 29.85 in 10.0 mi WSW 12.7 mph - N/A   Scattered Clouds
11:51 PM 44.1 °F 39.5 °F 37.0 °F 76% 29.85 in 10.0 mi SW 8.1 mph - N/A   Scattered Clouds